STARLINK-11564, 62913

Orbit data source: Space-Track

STARLINK-11564, 62913 is a payload satellite owned by SpaceX/Seattle (US) in LEO that was launched on Sat, 08 Feb 2025 UTC via an FALCON 9 launch vehicle from the Air Force Eastern Test Range (AFETR). Payload-class satellites include a variety of spacecraft equipped with specific instruments for various scientific and technological missions. These include communications satellites like Starlink; space stations such as the ISS; scientific satellites like the Hubble; Earth observation satellites from companies like Planet Labs, Umbra, and HawkEye 360; GPS; miniature CubeSats for education and research; and military/defense satellites.

Loading next visibility...
Identifier
62913, 2025-027G
Orbit
LEO
Last TLE update
1 day ago
Origin
Manufacturer
SpaceX/Seattle
Mission
Operational Commercial Communications
Bus & Motor
STARLINK V2M, Unknown motor
Mass
730 kg wet, ~700 kg dry
Launch date (UTC)
2025-02-08 (3 months ago)
Launch vehicle
FALCON 9
Launch site
Air Force Eastern Test Range (AFETR)
Object type
Payload
Rocket body
Debris
Shape & HBR
Box + 2 Pan, 29 m
Radar Cross Section
36.964 m², Large (>1 m²)

Expand to show TLE details & history

TLE from 1 day ago
0 STARLINK-11564
1 62913U 25027G   25127.94114213  .00000598  00000-0  81620-5 0  9993
2 62913  42.9990  30.8160 0002099 300.1811  59.8849 15.70826698 15065
Epoch: 2025-05-07T22:35Z
Definitive object data (Epoch: 2025-05-07T22:35:14.68Z)
Latitude
0.00003°
Longitude
-174.0139°
Altitude
355.595 km
Speed
7.698 km/s
True Right ascension
02h 03m 15s
True Declination
0° 00' 00"
Sunlit
Object was in daylight at TLE epoch
Visualization TLE readout
Latitude
-22.82613°
Longitude
151.30104°
Altitude
360.535 km
Speed
7.694 km/s
Apparent Right ascension
01h 00m 31s
Apparent Declination
-32° 49' 53"
Sunlit
Object is in daylight
Visualization observer readout
Local Sidereal Time
14:38:04
Azimuth
77.768° E
Elevation
-69.204°
Doppler factor
1
Orbital elements
Apogee altitude
359.929 km
Perigee altitude
357.101 km
Semi-major axis
6,736.652 km
Eccentricity
0.0002099
Inclination
42.999°
RAAN
30.816°
Arg. of periapsis
300.1811°
True anomaly
59.90571°
Mean anomaly
59.8849°
Eccentric anomaly
59.8953°
Mean motion
3.92534 °/min
BSTAR
0.000008162
Orbital period
91.71 mins
Loading maneuver chart data...
Loading SW <> Apogee altitude chart data...
Loading historical data...
Loading historical data...
Loading historical data...
Loading historical data...
Loading historical data...
Loading historical data...
Loading historical data...

STARLINK-11564 Visibility forecast

Observer location: undefined°, undefined°

Span
Click to sort rows by Start time (UTC) header in descending order
Start Az.
Max El. time (UTC)
Max El. Az.
Max El.
End time (UTC)
End Az.
5 mins2025-05-09 20:35:13.952Z228.37° WSW2025-05-09 20:38:13.952Z132.528° SE34.482°2025-05-09 20:40:13.952Z83.133° E
4 mins2025-05-09 22:12:13.952Z280.629° WNW2025-05-09 22:14:13.952Z8.322° NNE37.161°2025-05-09 22:16:13.952Z65.068° ENE
4 mins2025-05-09 23:49:13.952Z308.461° NW2025-05-09 23:50:13.952Z356.09° N37.214°2025-05-09 23:53:13.952Z86.161° E
4 mins2025-05-10 01:25:13.952Z264.932° W2025-05-10 01:26:13.952Z224.968° SW35.374°2025-05-10 01:29:13.952Z130.491° SE
|